| time (UTC) | temp C | wind direction | speed KPH | gust KPH | rain 1hr cm | rain 24hr cm | rain mn cm | humidity % | barometer mb |
| 20260507031025 | 13 | 249 | 3.2 | 4.8 | 0.05 | 0.48 | 0.48 | 100 | 1004.8 |
| 20260507030525 | 13 | 229 | 3.2 | 8.0 | 0.05 | 0.48 | 0.48 | 100 | 1004.8 |
| 20260507025025 | 13 | 288 | 1.6 | 4.8 | 0.05 | 0.48 | 0.48 | 100 | 1004.7 |
| 20260507024524 | 13 | 220 | 3.2 | 9.7 | 0.00 | 0.43 | 0.43 | 100 | 1004.6 |
| 20260507024025 | 13 | 252 | 1.6 | 9.7 | 0.00 | 0.43 | 0.43 | 100 | 1004.6 |
| 20260507023524 | 13 | 155 | 3.2 | 9.7 | 0.00 | 0.43 | 0.43 | 100 | 1004.5 |
| 20260507023025 | 13 | 247 | 3.2 | 8.0 | 0.00 | 0.43 | 0.43 | 100 | 1004.7 |
| 20260507022524 | 13 | 232 | 1.6 | 3.2 | 0.00 | 0.43 | 0.43 | 100 | 1004.7 |
| 20260507022025 | 13 | 234 | 3.2 | 8.0 | 0.00 | 0.43 | 0.43 | 100 | 1004.7 |
| 20260507021524 | 13 | 153 | 4.8 | 8.0 | 0.00 | 0.43 | 0.43 | 100 | 1004.6 |
| 20260507020524 | 13 | 269 | 3.2 | 8.0 | 0.05 | 0.43 | 0.43 | 100 | 1004.7 |
| 20260507015525 | 13 | 218 | 1.6 | 4.8 | 0.05 | 0.43 | 0.43 | 100 | 1004.8 |
| 20260507015024 | 13 | 259 | 1.6 | 8.0 | 0.05 | 0.43 | 0.43 | 100 | 1004.8 |
| 20260507014025 | 13 | 200 | 3.2 | 8.0 | 0.05 | 0.43 | 0.43 | 100 | 1004.6 |
| 20260507013524 | 13 | 158 | 1.6 | 4.8 | 0.05 | 0.43 | 0.43 | 100 | 1004.6 |
| 20260507013025 | 13 | 212 | 3.2 | 8.0 | 0.05 | 0.43 | 0.43 | 100 | 1004.6 |
| 20260507012524 | 13 | 209 | 3.2 | 9.7 | 0.05 | 0.43 | 0.43 | 100 | 1004.6 |
| 20260507012024 | 13 | 189 | 1.6 | 4.8 | 0.10 | 0.43 | 0.43 | 100 | 1004.9 |
| 20260507011524 | 13 | 193 | 3.2 | 8.0 | 0.10 | 0.43 | 0.43 | 100 | 1004.9 |
| 20260507010525 | 13 | 231 | 1.6 | 9.7 | 0.05 | 0.38 | 0.38 | 100 | 1005.0 |
| 20260507010024 | 13 | 193 | 3.2 | 4.8 | 0.05 | 0.38 | 0.38 | 100 | 1005.1 |
| 20260507005524 | 13 | 9 | 3.2 | 14.5 | 0.05 | 0.38 | 0.38 | 100 | 1004.9 |
| 20260507005024 | 13 | 171 | 1.6 | 4.8 | 0.05 | 0.38 | 0.38 | 100 | 1005.0 |
| 20260507004025 | 13 | 230 | 1.6 | 12.9 | 0.05 | 0.38 | 0.38 | 100 | 1005.1 |
| 20260507003524 | 13 | 53 | 1.6 | 4.8 | 0.05 | 0.38 | 0.38 | 100 | 1005.1 |
| 20260507003024 | 13 | 251 | 3.2 | 9.7 | 0.05 | 0.38 | 0.38 | 100 | 1005.2 |
| 20260507002524 | 13 | 217 | 4.8 | 14.5 | 0.05 | 0.38 | 0.38 | 100 | 1005.0 |
| 20260507002024 | 13 | 31 | 3.2 | 8.0 | 0.05 | 0.33 | 0.33 | 100 | 1004.8 |
| 20260507001524 | 13 | 203 | 1.6 | 4.8 | 0.05 | 0.33 | 0.33 | 100 | 1004.8 |
| 20260507001024 | 13 | 223 | 3.2 | 11.3 | 0.05 | 0.33 | 0.33 | 100 | 1004.9 |
| 20260507000524 | 13 | 133 | 1.6 | 8.0 | 0.05 | 0.33 | 0.33 | 100 | 1004.7 |
| 20260507000023 | 13 | 175 | 3.2 | 9.7 | 0.05 | 0.33 | 0.33 | 100 | 1004.7 |
| 20260506235524 | 13 | 183 | 3.2 | 8.0 | 0.05 | 0.33 | 0.33 | 100 | 1004.7 |
| 20260506235024 | 13 | 188 | 3.2 | 4.8 | 0.05 | 0.33 | 0.33 | 100 | 1004.7 |
| 20260506234524 | 13 | 214 | 1.6 | 8.0 | 0.05 | 0.33 | 0.33 | 100 | 1004.7 |
| 20260506234024 | 13 | 181 | 3.2 | 12.9 | 0.05 | 0.33 | 0.33 | 100 | 1004.6 |
| 20260506233524 | 13 | 212 | 4.8 | 9.7 | 0.05 | 0.33 | 0.33 | 100 | 1004.7 |
| 20260506233024 | 13 | 207 | 1.6 | 9.7 | 0.05 | 0.33 | 0.33 | 100 | 1004.6 |
| 20260506232524 | 13 | 145 | 4.8 | 12.9 | 0.10 | 0.33 | 0.33 | 100 | 1004.6 |
| 20260506231523 | 13 | 227 | 3.2 | 9.7 | 0.05 | 0.28 | 0.28 | 100 | 1004.6 |
| 20260506231023 | 13 | 184 | 1.6 | 9.7 | 0.05 | 0.28 | 0.28 | 100 | 1004.5 |
| 20260506230524 | 13 | 196 | 3.2 | 9.7 | 0.05 | 0.28 | 0.28 | 100 | 1004.5 |
| 20260506225524 | 13 | 225 | 3.2 | 8.0 | 0.10 | 0.28 | 0.28 | 100 | 1004.6 |
| 20260506224024 | 13 | 36 | 3.2 | 4.8 | 0.10 | 0.28 | 0.28 | 100 | 1004.7 |
| 20260506223024 | 13 | 205 | 3.2 | 9.7 | 0.15 | 0.28 | 0.28 | 100 | 1004.6 |
| 20260506222524 | 13 | 217 | 4.8 | 11.3 | 0.10 | 0.25 | 0.25 | 100 | 1004.7 |
| 20260506222024 | 14 | 228 | 3.2 | 8.0 | 0.10 | 0.25 | 0.25 | 100 | 1004.7 |
| 20260506221024 | 14 | 202 | 3.2 | 12.9 | 0.10 | 0.25 | 0.25 | 100 | 1005.0 |
| 20260506220523 | 14 | 226 | 3.2 | 11.3 | 0.10 | 0.25 | 0.25 | 100 | 1005.0 |
| 20260506220027 | 14 | 185 | 3.2 | 8.0 | 0.05 | 0.20 | 0.20 | 100 | 1005.1 |
| 20260506215523 | 14 | 198 | 3.2 | 9.7 | 0.05 | 0.20 | 0.20 | 100 | 1005.0 |
| 20260506215023 | 14 | 196 | 3.2 | 8.0 | 0.05 | 0.20 | 0.20 | 100 | 1005.0 |
| 20260506214524 | 14 | 110 | 3.2 | 4.8 | 0.05 | 0.20 | 0.20 | 100 | 1005.0 |
| 20260506214024 | 14 | 192 | 3.2 | 9.7 | 0.05 | 0.20 | 0.20 | 100 | 1005.0 |
| 20260506213523 | 14 | 186 | 3.2 | 4.8 | 0.00 | 0.15 | 0.15 | 100 | 1005.2 |
| 20260506213024 | 14 | 206 | 3.2 | 4.8 | 0.00 | 0.15 | 0.15 | 100 | 1005.3 |
| 20260506212524 | 14 | 184 | 3.2 | 9.7 | 0.00 | 0.15 | 0.15 | 100 | 1005.3 |
| 20260506212024 | 15 | 148 | 3.2 | 8.0 | 0.00 | 0.15 | 0.15 | 99 | 1005.4 |
| 20260506211523 | 15 | 169 | 3.2 | 11.3 | 0.00 | 0.15 | 0.15 | 99 | 1005.4 |
| 20260506211024 | 15 | 118 | 3.2 | 9.7 | 0.00 | 0.15 | 0.15 | 98 | 1005.3 |
| 20260506204524 | 15 | 190 | 3.2 | 12.9 | 0.05 | 0.15 | 0.15 | 96 | 1005.5 |
| 20260506203523 | 15 | 89 | 4.8 | 9.7 | 0.10 | 0.15 | 0.15 | 96 | 1005.7 |
| 20260506203023 | 15 | 181 | 4.8 | 16.1 | 0.10 | 0.15 | 0.15 | 95 | 1005.7 |
| 20260506201523 | 15 | 202 | 3.2 | 11.3 | 0.10 | 0.15 | 0.15 | 96 | 1005.7 |
| 20260506201023 | 15 | 210 | 4.8 | 16.1 | 0.15 | 0.15 | 0.15 | 94 | 1005.7 |
| 20260506200523 | 15 | 180 | 4.8 | 14.5 | 0.15 | 0.15 | 0.15 | 94 | 1005.7 |
| 20260506195523 | 15 | 198 | 4.8 | 14.5 | 0.15 | 0.15 | 0.15 | 93 | 1005.7 |
| 20260506195023 | 15 | 128 | 3.2 | 9.7 | 0.10 | 0.10 | 0.10 | 95 | 1005.7 |
| 20260506194523 | 15 | 171 | 3.2 | 4.8 | 0.10 | 0.10 | 0.10 | 96 | 1005.7 |
| 20260506194024 | 15 | 102 | 3.2 | 9.7 | 0.05 | 0.05 | 0.05 | 95 | 1005.5 |
| 20260506193523 | 15 | 113 | 3.2 | 8.0 | 0.05 | 0.05 | 0.05 | 93 | 1005.7 |
| 20260506193024 | 15 | 180 | 1.6 | 4.8 | 0.05 | 0.05 | 0.05 | 93 | 1005.8 |
| 20260506192523 | 15 | 299 | 4.8 | 8.0 | 0.05 | 0.05 | 0.05 | 92 | 1005.9 |
| 20260506191023 | 16 | 173 | 3.2 | 11.3 | 0.00 | 0.00 | 0.00 | 91 | 1005.9 |
| 20260506190524 | 16 | 197 | 4.8 | 12.9 | 0.00 | 0.00 | 0.00 | 89 | 1005.8 |
| 20260506190023 | 16 | 216 | 4.8 | 12.9 | 0.00 | 0.00 | 0.00 | 86 | 1006.0 |
| 20260506185523 | 17 | 209 | 6.4 | 12.9 | 0.00 | 0.00 | 0.00 | 81 | 1005.9 |
| 20260506185024 | 17 | 212 | 4.8 | 9.7 | 0.00 | 0.00 | 0.00 | 76 | 1005.9 |
| 20260506184523 | 18 | 189 | 8.0 | 12.9 | 0.00 | 0.00 | 0.00 | 71 | 1005.9 |
| 20260506184024 | 18 | 174 | 4.8 | 14.5 | 0.00 | 0.00 | 0.00 | 69 | 1006.0 |
| 20260506183523 | 18 | 241 | 4.8 | 16.1 | 0.00 | 0.00 | 0.00 | 67 | 1006.0 |
| 20260506183023 | 18 | 203 | 3.2 | 8.0 | 0.00 | 0.00 | 0.00 | 70 | 1006.3 |
| 20260506182523 | 19 | 235 | 4.8 | 14.5 | 0.00 | 0.00 | 0.00 | 68 | 1006.3 |
| 20260506182023 | 19 | 111 | 3.2 | 16.1 | 0.00 | 0.00 | 0.00 | 64 | 1006.1 |
| 20260506181523 | 20 | 237 | 6.4 | 16.1 | 0.00 | 0.00 | 0.00 | 61 | 1006.4 |
| 20260506175524 | 20 | 131 | 3.2 | 14.5 | 0.00 | 0.00 | 0.00 | 59 | 1006.4 |
| 20260506175023 | 20 | 231 | 4.8 | 16.1 | 0.00 | 0.00 | 0.00 | 56 | 1006.2 |
| 20260506174523 | 20 | 298 | 9.7 | 20.9 | 0.00 | 0.00 | 0.00 | 56 | 1006.3 |
| 20260506174023 | 21 | 215 | 6.4 | 16.1 | 0.00 | 0.00 | 0.00 | 56 | 1006.3 |
| 20260506173523 | 21 | 210 | 6.4 | 19.3 | 0.00 | 0.00 | 0.00 | 53 | 1006.2 |
| 20260506172523 | 21 | 157 | 4.8 | 20.9 | 0.00 | 0.00 | 0.00 | 53 | 1006.4 |
| 20260506171523 | 21 | 213 | 8.0 | 20.9 | 0.00 | 0.00 | 0.00 | 53 | 1006.4 |
| 20260506171023 | 21 | 217 | 6.4 | 24.1 | 0.00 | 0.00 | 0.00 | 52 | 1006.6 |
| 20260506170522 | 22 | 208 | 4.8 | 14.5 | 0.00 | 0.00 | 0.00 | 50 | 1006.3 |
| 20260506170023 | 22 | 222 | 6.4 | 16.1 | 0.00 | 0.00 | 0.00 | 52 | 1006.3 |
| 20260506165523 | 22 | 233 | 8.0 | 16.1 | 0.00 | 0.00 | 0.00 | 51 | 1006.6 |
| 20260506165023 | 21 | 188 | 8.0 | 19.3 | 0.00 | 0.00 | 0.00 | 53 | 1006.6 |
| 20260506164523 | 21 | 241 | 8.0 | 14.5 | 0.00 | 0.00 | 0.00 | 54 | 1006.6 |
| 20260506164023 | 21 | 147 | 6.4 | 16.1 | 0.00 | 0.00 | 0.00 | 54 | 1006.7 |
| 20260506163523 | 21 | 195 | 4.8 | 14.5 | 0.00 | 0.00 | 0.00 | 53 | 1006.8 |
| 20260506163023 | 21 | 144 | 4.8 | 14.5 | 0.00 | 0.00 | 0.00 | 54 | 1006.8 |
| 20260506162523 | 21 | 215 | 9.7 | 20.9 | 0.00 | 0.00 | 0.00 | 53 | 1006.8 |
| 20260506162023 | 21 | 115 | 4.8 | 11.3 | 0.00 | 0.00 | 0.00 | 53 | 1006.9 |
| 20260506161523 | 22 | 201 | 3.2 | 4.8 | 0.00 | 0.00 | 0.00 | 55 | 1007.0 |
| 20260506161022 | 22 | 93 | 3.2 | 11.3 | 0.00 | 0.00 | 0.00 | 53 | 1007.1 |
| 20260506160523 | 21 | 227 | 4.8 | 11.3 | 0.00 | 0.00 | 0.00 | 51 | 1007.1 |
| 20260506160022 | 21 | 192 | 8.0 | 24.1 | 0.00 | 0.00 | 0.00 | 52 | 1007.1 |
| 20260506155523 | 21 | 209 | 4.8 | 11.3 | 0.00 | 0.00 | 0.00 | 53 | 1007.4 |
| 20260506155022 | 21 | 250 | 4.8 | 11.3 | 0.00 | 0.00 | 0.00 | 55 | 1007.5 |
| 20260506154522 | 21 | 218 | 3.2 | 8.0 | 0.00 | 0.00 | 0.00 | 58 | 1007.6 |
| 20260506153523 | 21 | 223 | 4.8 | 14.5 | 0.00 | 0.00 | 0.00 | 56 | 1007.6 |
| 20260506153023 | 21 | 255 | 4.8 | 11.3 | 0.00 | 0.00 | 0.00 | 57 | 1007.7 |
| 20260506152522 | 21 | 350 | 4.8 | 12.9 | 0.00 | 0.00 | 0.00 | 56 | 1007.8 |
| 20260506152022 | 21 | 185 | 3.2 | 11.3 | 0.00 | 0.00 | 0.00 | 57 | 1007.9 |
| 20260506151023 | 21 | 242 | 4.8 | 12.9 | 0.00 | 0.00 | 0.00 | 55 | 1007.7 |
| 20260506150523 | 21 | 232 | 6.4 | 14.5 | 0.00 | 0.00 | 0.00 | 54 | 1007.8 |
| 20260506145523 | 21 | 259 | 4.8 | 11.3 | 0.00 | 0.00 | 0.00 | 55 | 1008.0 |
| 20260506145023 | 21 | 62 | 8.0 | 20.9 | 0.00 | 0.00 | 0.00 | 58 | 1007.9 |
| 20260506143522 | 21 | 264 | 3.2 | 14.5 | 0.00 | 0.00 | 0.00 | 58 | 1007.8 |
| 20260506143022 | 21 | 197 | 6.4 | 14.5 | 0.00 | 0.00 | 0.00 | 57 | 1008.0 |
| 20260506142023 | 21 | 266 | 4.8 | 11.3 | 0.00 | 0.00 | 0.00 | 59 | 1007.7 |
| 20260506141523 | 21 | 94 | 8.0 | 19.3 | 0.00 | 0.00 | 0.00 | 62 | 1007.7 |
| 20260506140523 | 20 | 210 | 4.8 | 14.5 | 0.00 | 0.00 | 0.00 | 58 | 1007.9 |
| 20260506140022 | 21 | 241 | 4.8 | 11.3 | 0.00 | 0.00 | 0.00 | 57 | 1007.7 |
| 20260506135523 | 20 | 234 | 6.4 | 14.5 | 0.00 | 0.00 | 0.00 | 60 | 1007.7 |
| 20260506135023 | 20 | 211 | 4.8 | 16.1 | 0.00 | 0.00 | 0.00 | 60 | 1007.9 |
| 20260506134522 | 20 | 183 | 8.0 | 16.1 | 0.00 | 0.00 | 0.00 | 60 | 1007.7 |
| 20260506134022 | 20 | 214 | 3.2 | 12.9 | 0.00 | 0.00 | 0.00 | 63 | 1007.7 |
| 20260506133523 | 20 | 202 | 3.2 | 12.9 | 0.00 | 0.00 | 0.00 | 62 | 1008.0 |
| 20260506133023 | 20 | 219 | 4.8 | 9.7 | 0.00 | 0.00 | 0.00 | 65 | 1008.2 |
| 20260506132522 | 18 | 181 | 4.8 | 14.5 | 0.00 | 0.00 | 0.00 | 70 | 1008.6 |
| 20260506132023 | 18 | 244 | 4.8 | 16.1 | 0.00 | 0.00 | 0.00 | 68 | 1008.5 |
| 20260506131522 | 18 | 230 | 3.2 | 9.7 | 0.00 | 0.00 | 0.00 | 70 | 1008.6 |
| 20260506131022 | 18 | 231 | 4.8 | 11.3 | 0.00 | 0.00 | 0.00 | 70 | 1008.7 |
| 20260506130522 | 18 | 310 | 3.2 | 12.9 | 0.00 | 0.00 | 0.00 | 71 | 1008.6 |
| 20260506130022 | 18 | 215 | 6.4 | 14.5 | 0.00 | 0.00 | 0.00 | 70 | 1008.6 |
| 20260506125522 | 18 | 166 | 3.2 | 12.9 | 0.00 | 0.00 | 0.00 | 71 | 1008.6 |
| 20260506125022 | 18 | 88 | 3.2 | 8.0 | 0.00 | 0.00 | 0.00 | 70 | 1008.4 |
| 20260506124022 | 17 | 229 | 3.2 | 8.0 | 0.00 | 0.00 | 0.00 | 72 | 1008.7 |
| 20260506123522 | 17 | 137 | 3.2 | 9.7 | 0.00 | 0.00 | 0.00 | 75 | 1008.7 |
| 20260506123023 | 17 | 166 | 4.8 | 8.0 | 0.00 | 0.00 | 0.00 | 74 | 1008.7 |
| 20260506122522 | 17 | 188 | 3.2 | 8.0 | 0.00 | 0.00 | 0.00 | 75 | 1008.7 |
| 20260506122023 | 17 | 203 | 4.8 | 11.3 | 0.00 | 0.00 | 0.00 | 76 | 1008.7 |
| 20260506121522 | 16 | 234 | 4.8 | 12.9 | 0.00 | 0.00 | 0.00 | 77 | 1008.6 |
| 20260506121022 | 16 | 201 | 4.8 | 11.3 | 0.00 | 0.00 | 0.00 | 76 | 1008.7 |
| 20260506120522 | 16 | 264 | 3.2 | 19.3 | 0.00 | 0.00 | 0.00 | 77 | 1008.6 |
| 20260506115522 | 16 | 181 | 3.2 | 8.0 | 0.00 | 0.00 | 0.00 | 79 | 1008.7 |
| 20260506115022 | 15 | 134 | 4.8 | 9.7 | 0.00 | 0.00 | 0.00 | 81 | 1009.0 |
| 20260506114522 | 15 | 226 | 3.2 | 12.9 | 0.00 | 0.00 | 0.00 | 81 | 1009.0 |
| 20260506113522 | 15 | 207 | 3.2 | 8.0 | 0.00 | 0.00 | 0.00 | 81 | 1008.9 |
| 20260506112522 | 15 | 153 | 3.2 | 9.7 | 0.00 | 0.00 | 0.00 | 83 | 1009.1 |
| 20260506112022 | 15 | 183 | 3.2 | 9.7 | 0.00 | 0.00 | 0.00 | 82 | 1009.1 |
| 20260506111022 | 15 | 200 | 3.2 | 12.9 | 0.00 | 0.00 | 0.00 | 82 | 1009.0 |
| 20260506110523 | 15 | 183 | 3.2 | 8.0 | 0.00 | 0.00 | 0.00 | 82 | 1008.9 |
| 20260506110022 | 15 | 205 | 3.2 | 9.7 | 0.00 | 0.00 | 0.00 | 83 | 1008.8 |
| 20260506105522 | 15 | 149 | 4.8 | 12.9 | 0.00 | 0.00 | 0.00 | 83 | 1008.8 |
| 20260506105022 | 15 | 70 | 3.2 | 9.7 | 0.00 | 0.00 | 0.00 | 84 | 1008.8 |
| 20260506104522 | 15 | 202 | 3.2 | 8.0 | 0.00 | 0.00 | 0.00 | 84 | 1008.8 |
| 20260506104022 | 14 | 190 | 1.6 | 9.7 | 0.00 | 0.00 | 0.00 | 84 | 1008.9 |
| 20260506103522 | 14 | 213 | 3.2 | 9.7 | 0.00 | 0.00 | 0.00 | 84 | 1008.7 |
| 20260506103021 | 14 | 181 | 3.2 | 8.0 | 0.00 | 0.00 | 0.00 | 84 | 1009.0 |
| 20260506102522 | 14 | 153 | 3.2 | 4.8 | 0.00 | 0.00 | 0.00 | 84 | 1009.1 |
| 20260506102021 | 15 | 235 | 3.2 | 11.3 | 0.00 | 0.00 | 0.00 | 84 | 1008.9 |
| 20260506101522 | 14 | 190 | 3.2 | 8.0 | 0.00 | 0.00 | 0.00 | 84 | 1008.9 |
| 20260506101022 | 14 | 166 | 3.2 | 8.0 | 0.00 | 0.00 | 0.00 | 84 | 1008.9 |
| 20260506100522 | 14 | 237 | 3.2 | 9.7 | 0.00 | 0.00 | 0.00 | 84 | 1008.7 |
| 20260506100021 | 14 | 208 | 3.2 | 8.0 | 0.00 | 0.00 | 0.00 | 85 | 1008.6 |
| 20260506095022 | 14 | 157 | 3.2 | 11.3 | 0.00 | 0.00 | 0.00 | 85 | 1008.6 |
| 20260506094522 | 14 | 155 | 3.2 | 8.0 | 0.00 | 0.00 | 0.00 | 84 | 1008.7 |
| 20260506094022 | 14 | 227 | 3.2 | 11.3 | 0.00 | 0.00 | 0.00 | 84 | 1008.5 |
| 20260506093522 | 14 | 203 | 3.2 | 8.0 | 0.00 | 0.00 | 0.00 | 84 | 1008.6 |
| 20260506093022 | 14 | 210 | 3.2 | 8.0 | 0.00 | 0.00 | 0.00 | 83 | 1008.6 |
| 20260506092522 | 14 | 157 | 3.2 | 11.3 | 0.00 | 0.00 | 0.00 | 83 | 1008.6 |
| 20260506092021 | 15 | 188 | 4.8 | 9.7 | 0.00 | 0.00 | 0.00 | 83 | 1008.6 |
| 20260506091021 | 14 | 180 | 3.2 | 8.0 | 0.00 | 0.00 | 0.00 | 83 | 1008.7 |
| 20260506090522 | 15 | 175 | 4.8 | 9.7 | 0.00 | 0.00 | 0.00 | 83 | 1008.7 |
| 20260506090021 | 15 | 114 | 4.8 | 11.3 | 0.00 | 0.00 | 0.00 | 83 | 1008.4 |
| 20260506085522 | 15 | 209 | 4.8 | 11.3 | 0.00 | 0.00 | 0.00 | 83 | 1008.6 |
| 20260506085022 | 15 | 195 | 4.8 | 11.3 | 0.00 | 0.00 | 0.00 | 82 | 1008.6 |
| 20260506084522 | 15 | 153 | 3.2 | 9.7 | 0.00 | 0.00 | 0.00 | 83 | 1008.6 |
| 20260506083522 | 15 | 234 | 4.8 | 11.3 | 0.00 | 0.00 | 0.00 | 83 | 1008.6 |
| 20260506083022 | 15 | 192 | 4.8 | 8.0 | 0.00 | 0.00 | 0.00 | 82 | 1008.7 |
| 20260506081522 | 15 | 230 | 3.2 | 8.0 | 0.00 | 0.00 | 0.00 | 82 | 1008.8 |
| 20260506081021 | 15 | 221 | 3.2 | 8.0 | 0.00 | 0.00 | 0.00 | 81 | 1008.7 |
| 20260506080521 | 15 | 150 | 3.2 | 8.0 | 0.00 | 0.00 | 0.00 | 81 | 1008.7 |
| 20260506073522 | 15 | 201 | 4.8 | 12.9 | 0.00 | 0.00 | 0.00 | 79 | 1009.0 |
| 20260506072521 | 15 | 147 | 3.2 | 11.3 | 0.00 | 0.00 | 0.00 | 79 | 1008.7 |
| 20260506072022 | 15 | 202 | 3.2 | 9.7 | 0.00 | 0.00 | 0.00 | 78 | 1008.7 |
| 20260506071521 | 15 | 184 | 4.8 | 20.9 | 0.00 | 0.00 | 0.00 | 78 | 1008.7 |
| 20260506071022 | 15 | 131 | 6.4 | 14.5 | 0.00 | 0.00 | 0.00 | 77 | 1008.6 |
| 20260506070522 | 15 | 235 | 3.2 | 11.3 | 0.00 | 0.00 | 0.00 | 77 | 1008.5 |
| 20260506062021 | 16 | 238 | 4.8 | 16.1 | 0.00 | 0.00 | 0.00 | 72 | 1008.3 |
| 20260506061021 | 16 | 210 | 4.8 | 9.7 | 0.00 | 0.00 | 0.00 | 72 | 1008.5 |
| 20260506060521 | 16 | 218 | 4.8 | 9.7 | 0.00 | 0.00 | 0.00 | 71 | 1008.4 |
| 20260506051022 | 16 | 210 | 3.2 | 19.3 | 0.00 | 0.00 | 0.00 | 67 | 1008.7 |
| 20260506045021 | 17 | 210 | 4.8 | 19.3 | 0.00 | 0.00 | 0.00 | 65 | 1008.9 |
| 20260506044521 | 17 | 190 | 4.8 | 16.1 | 0.00 | 0.00 | 0.00 | 65 | 1008.9 |
| 20260506044021 | 16 | 210 | 4.8 | 14.5 | 0.00 | 0.00 | 0.00 | 65 | 1009.0 |
| 20260506043021 | 17 | 224 | 4.8 | 11.3 | 0.00 | 0.00 | 0.00 | 65 | 1009.0 |
| 20260506042521 | 16 | 124 | 6.4 | 12.9 | 0.00 | 0.00 | 0.00 | 64 | 1008.9 |
| 20260506042021 | 16 | 223 | 3.2 | 9.7 | 0.00 | 0.00 | 0.00 | 65 | 1008.9 |
| 20260506041021 | 16 | 134 | 4.8 | 11.3 | 0.00 | 0.00 | 0.00 | 64 | 1009.0 |
| 20260506040521 | 16 | 197 | 3.2 | 12.9 | 0.00 | 0.00 | 0.00 | 63 | 1008.9 |
| 20260506040021 | 16 | 193 | 4.8 | 11.3 | 0.00 | 0.00 | 0.00 | 64 | 1009.0 |
| 20260506035521 | 16 | 272 | 4.8 | 16.1 | 0.00 | 0.00 | 0.00 | 63 | 1008.9 |
| 20260506035021 | 16 | 164 | 4.8 | 12.9 | 0.00 | 0.00 | 0.00 | 63 | 1008.9 |
| 20260506034021 | 17 | 203 | 4.8 | 12.9 | 0.00 | 0.00 | 0.00 | 63 | 1008.8 |
| 20260506033521 | 16 | 181 | 4.8 | 12.9 | 0.00 | 0.00 | 0.00 | 63 | 1008.8 |
| 20260506033021 | 16 | 142 | 6.4 | 11.3 | 0.00 | 0.00 | 0.00 | 63 | 1008.6 |
| 20260506032521 | 16 | 309 | 4.8 | 14.5 | 0.00 | 0.00 | 0.00 | 64 | 1008.6 |
| 20260506032021 | 16 | 193 | 4.8 | 9.7 | 0.00 | 0.00 | 0.00 | 63 | 1008.8 |
| 20260506031521 | 16 | 267 | 4.8 | 9.7 | 0.00 | 0.00 | 0.00 | 63 | 1008.6 |